Regional Weather Roundup
Issued by NWS

Home | Current Version | Previous Version | Graphics & Text | Print | Product List | Glossary On
Versions: 1 2 3 4 5 6 7 8 9 10 11 12 13 14 15 16 17 18 19 20 21 22 23 24 25 26 27 28 29 30 31 32 33 34 35 36 37 38 39 40 41 42 43 44 45 46 47 48 49 50
000
ASUS45 KABQ 020110
RWRNM
WEATHER ROUNDUP FOR NEW MEXICO
NATIONAL WEATHER SERVICE ALBUQUERQUE NM
700 PM MDT WED OCT 01 2014

NOTE: "FAIR" MEANS FEW OR NO CLOUDS BELOW 12,000 FEET AGL WITH NO
       SIGNIFICANT WEATHER OR OBSTRUCTIONS TO VISION.

      THIS PRODUCT IS RELEASED AS TWO VERSIONS.  ONE VERSION NEAR
      THE TOP OF THE HOUR CONTAINING PRELIMINARY DATA FROM ALBUQUERQUE
      AND OTHER STATIONS.  A FINAL VERSION WITH ADDITIONAL DATA IS
      ISSUED ABOUT 10 MINUTES AFTER THE HOUR.

NMZ501-503-504-510>518-020200-
NORTHWEST PLATEAU/NORTHCENTRAL MOUNTAINS

CITY           SKY/WX    TMP DP  RH WIND       PRES   REMARKS
FARMINGTON     CLEAR     62  33  33 NW13G20   29.95R
LOS ALAMOS     PTCLDY    60  27  28 NW8       30.01S
SANTA FE       MOCLDY    66  27  23 NW13      29.94R
TAOS           PTCLDY    57  23  26 W15G22    30.00R
ANGEL FIRE     FAIR      53  18  25 W18G30    30.04R

$$
NMZ402-403-502-505>509-020200-
WESTCENTRAL MOUNTAINS/SOUTHWEST MOUNTAINS

CITY           SKY/WX    TMP DP  RH WIND       PRES   REMARKS
GALLUP         CLOUDY    64  30  27 NW15      30.02R
GRANTS         PTCLDY    61  28  29 W9G16     30.03R
SILVER CITY    CLEAR     68  32  26 NW13      30.01R

$$
NMZ407-409-411-412-020200-
SOUTHERN DESERTS

CITY           SKY/WX    TMP DP  RH WIND       PRES   REMARKS
LORDSBURG      FAIR      75  30  19 MISG      29.91S
DEMING         CLEAR     76  30  18 W13       29.91R
LAS CRUCES     CLEAR     75  29  18 W9        29.92R
HOLLOMAN AFB   CLEAR     76  32  19 S8        29.86R
ALAMOGORDO     CLEAR     68  39  34 S9        29.89R
T OR C         CLEAR     76  33  21 SW12      29.86R

$$
NMZ519>523-020200-
CENTRAL VALLEYS/CENTRAL HIGHLANDS

CITY           SKY/WX    TMP DP  RH WIND       PRES   REMARKS
ALBUQUERQUE    MOCLDY    74  28  18 W13       29.90R
DOUBLE EAGLE   PTCLDY    72  30  21 SW17      29.94R
MORIARTY ARPT  FAIR      62  31  30 SW5       29.96S
CLINES CORNERS PTCLDY    60  29  30 SW12      29.98R
BELEN          FAIR      72  27  19 W8        29.90R
SOCORRO        FAIR      71  37  29 S3        29.87S

$$
NMZ524>526-539-540-020200-
SOUTHCENTRAL MOUNTAINS

CITY           SKY/WX    TMP DP  RH WIND       PRES   REMARKS
RUIDOSO        NOT AVBL

$$
NMZ527>531-020200-
NORTHEAST HIGHLANDS/NORTHEAST PLAINS

CITY           SKY/WX    TMP DP  RH WIND       PRES   REMARKS
LAS VEGAS      PTCLDY    60  30  32 SW12      29.96R
RATON          MOCLDY    63  33  32 W7        29.89R
CLAYTON        CLEAR     62  39  42 S10       29.83S

$$
NMZ532>537-020200-
EASTCENTRAL PLAINS

CITY           SKY/WX    TMP DP  RH WIND       PRES   REMARKS
TUCUMCARI      CLEAR     71  40  32 S7        29.79R
CANNON AFB     CLEAR     68  41  36 SW8       29.85R
CLOVIS AIRPORT   N/A     66  43  42 SW7       29.87R

$$
NMZ028-029-538-020200-
SOUTHEAST PLAINS

CITY           SKY/WX    TMP DP  RH WIND       PRES   REMARKS
ROSWELL        CLEAR     74  45  35 SE10      29.79R
CARLSBAD       CLEAR     75  47  36 SE5       29.80R
HOBBS          CLEAR     72  46  40 S6        29.84S


$$



USA.gov is the U.S. government's official web portal to all federal, state and local government web resources and services.